Theta_e
344 349 350 350 352 352 353 351 351 352 352 350 353 353 353 352 351 351 350 349 350 348 346 346 346 349 351 349 345 345 346 348 348 347 350 351 351 349 347 348 351 347 350
346 348 352 352 352 353 353 352 351 352 352 352 353 353 353 352 352 350 349 347 346 346 346 344 344 345 348 348 346 345 345 344 345 346 346 347 349 349 349 349 350 349 349
344 346 348 352 351 351 351 352 352 351 350 350 350 350 350 349 347 348 347 346 346 346 345 345 343 342 344 346 344 344 344 343 343 343 345 343 344 349 349 350 351 350 347
345 346 348 350 350 350 349 350 350 350 350 350 348 347 347 348 347 347 346 346 346 347 345 344 344 343 342 342 343 343 344 343 342 342 340 339 344 347 348 348 347 347 346
345 347 349 349 349 349 348 349 348 349 349 348 347 347 347 346 347 347 347 347 348 348 346 345 345 344 343 342 341 343 343 341 340 339 342 344 346 346 349 347 345 345 347
343 345 347 348 348 347 348 347 348 348 348 348 348 346 346 346 346 347 348 348 347 348 346 345 346 345 344 344 342 341 341 338 336 338 340 342 346 347 347 346 349 346 347
343 345 345 348 348 348 348 349 349 349 349 348 347 346 346 345 345 346 347 348 347 347 346 345 345 345 345 344 343 343 339 336 337 334 337 339 343 343 347 347 348 348 347
341 344 345 345 346 347 347 348 348 348 347 347 347 346 346 346 345 344 345 345 346 346 347 346 344 343 343 344 344 342 337 336 336 336 338 338 340 343 344 345 346 347 347
328 328 331 337 341 342 344 344 345 345 345 346 346 346 345 345 345 344 345 345 345 346 346 346 345 344 340 343 344 342 337 334 339 340 341 344 339 341 346 344 346 347 347
318 319 320 321 324 331 334 338 340 340 341 341 341 340 340 340 342 343 343 344 345 345 345 345 345 345 342 342 343 340 335 333 337 341 343 344 340 344 345 346 346 345 346
314 315 316 318 320 321 324 328 332 334 329 331 333 333 332 336 340 341 339 338 341 344 344 344 345 344 343 341 342 338 334 335 335 337 341 339 341 343 346 347 347 344 344
308 311 312 314 318 320 320 322 326 326 326 325 325 326 327 327 329 338 335 335 339 340 341 343 343 342 340 339 336 335 333 333 333 333 337 338 341 342 343 345 344 346 346
306 308 310 311 314 319 321 322 323 325 325 325 325 325 325 326 328 331 332 338 341 335 341 342 342 342 341 341 337 333 330 328 328 330 334 337 341 342 341 343 342 345 345
304 305 307 309 311 315 321 321 322 322 323 324 324 324 324 324 326 328 331 334 335 339 340 341 341 341 342 341 340 335 332 329 327 327 330 335 338 342 342 341 343 343 343
301 303 304 306 308 312 317 320 321 321 322 322 323 324 324 324 325 328 329 330 334 337 338 339 339 339 339 340 339 339 334 332 331 331 330 331 335 340 342 343 342 342 342
298 300 302 303 305 308 312 316 321 321 322 323 323 324 324 324 324 325 326 328 330 333 336 337 338 338 338 339 338 338 338 336 333 334 334 334 331 336 340 342 342 342 341
296 297 298 300 302 304 307 313 314 319 322 323 323 324 324 324 324 324 324 325 327 331 334 337 338 337 337 338 337 337 338 338 338 334 334 336 335 329 335 340 343 342 343
293 293 296 296 297 300 303 306 312 314 314 314 318 321 321 323 324 324 323 323 325 327 329 331 333 332 331 331 332 332 333 337 337 337 337 334 335 335 331 335 340 343 343
291 292 293 295 294 296 299 302 306 310 310 309 311 311 313 314 318 322 323 324 324 324 326 327 329 329 327 328 330 331 331 331 332 336 336 337 335 335 336 331 330 332 336
290 291 291 292 293 294 296 297 300 302 304 306 306 306 307 309 312 316 321 322 324 323 324 326 325 327 326 325 324 325 328 329 330 332 335 336 336 336 334 336 335 331 328
289 289 289 290 291 292 292 292 293 294 300 302 301 302 303 304 307 309 313 318 320 321 322 324 324 324 323 326 322 322 323 325 327 329 331 334 335 336 335 334 334 335 333
287 287 288 288 289 289 290 291 292 293 295 297 296 298 300 299 303 305 307 311 316 316 317 320 322 321 322 324 320 318 313 315 322 324 328 331 333 335 334 335 335 334 334
286 286 286 287 288 288 288 290 291 292 293 292 292 294 295 296 298 299 303 306 310 313 315 318 319 319 318 321 322 317 311 309 314 322 323 326 328 330 331 333 334 334 334
285 286 286 286 287 287 288 287 287 287 287 289 290 292 292 294 295 296 297 301 304 308 310 315 317 317 317 315 320 320 321 318 312 310 321 322 322 322 324 327 329 332 333
285 285 285 285 286 286 286 286 286 286 287 288 289 289 290 292 293 294 296 296 299 302 306 308 312 314 316 315 315 318 317 317 318 314 309 314 321 324 326 326 328 329 330
285 284 285 284 284 285 285 285 285 284 285 285 286 286 288 289 290 292 293 295 296 297 301 304 305 307 310 315 315 316 315 313 311 312 312 313 312 317 322 324 325 325 325
Wind_Speed
5 7 3 5 8 9 10 11 10 9 8 10 11 11 11 11 10 11 11 11 10 10 10 9 9 10 12 13 12 11 11 11 11 10 9 10 11 12 12 9 11 15 16
6 5 4 5 7 8 9 11 10 8 8 9 10 10 10 10 10 10 9 9 9 10 10 10 9 9 11 12 11 10 11 10 10 9 7 8 8 10 10 6 11 15 16
6 6 7 4 6 7 8 10 10 9 8 8 8 8 7 7 7 7 7 7 8 9 10 10 9 9 9 9 10 10 9 9 8 7 2 6 9 9 10 10 12 12 13
6 6 7 5 5 5 5 7 7 7 7 8 7 7 6 6 6 6 6 6 6 9 9 9 9 8 8 8 9 9 9 8 7 1 4 5 7 8 12 12 12 12 12
6 5 8 6 7 6 6 6 5 5 5 5 5 5 5 5 5 5 5 5 6 7 8 8 8 8 7 7 7 8 7 7 4 4 5 4 3 10 13 12 12 12 10
7 6 8 7 7 8 8 7 6 6 5 5 3 1 1 2 2 4 3 4 6 6 7 7 7 7 6 6 7 6 6 4 5 4 4 5 5 11 13 10 9 10 10
7 6 7 5 5 6 7 7 7 7 6 5 4 2 1 2 2 0 2 4 6 7 6 6 6 6 5 5 6 6 4 1 4 3 3 3 5 0 9 10 9 10 10
9 8 8 7 10 10 8 7 7 6 6 6 5 4 4 3 3 3 1 2 4 5 7 7 7 6 5 4 7 5 2 2 4 4 3 2 5 2 7 8 7 9 10
14 12 11 11 10 4 7 8 8 8 8 7 6 6 6 5 5 3 4 4 4 5 5 6 7 7 6 5 5 5 3 3 4 3 2 2 3 5 6 9 9 10 11
15 15 15 13 11 10 10 8 9 7 7 7 7 6 6 4 0 2 4 6 6 6 6 6 7 7 7 6 5 5 4 5 5 3 2 2 1 4 8 11 12 9 11
14 16 15 15 14 12 9 6 5 2 3 3 2 3 6 5 5 4 3 5 6 7 7 8 7 7 7 7 7 6 5 6 5 3 3 4 4 5 12 15 12 10 9
18 17 15 15 14 13 8 9 7 5 4 4 5 6 5 7 6 6 5 4 7 8 7 8 8 7 7 6 6 6 6 6 5 5 3 1 5 3 4 5 9 8 9
15 14 17 16 15 13 9 7 5 5 5 4 5 4 4 4 4 4 4 4 5 5 5 6 8 8 10 6 5 6 6 6 5 5 3 2 5 6 5 8 11 9 9
17 18 18 18 15 14 9 6 6 5 5 5 6 7 5 3 3 4 4 5 6 5 6 6 5 8 9 10 9 8 7 6 4 4 4 5 5 5 9 9 10 9 10
18 18 18 18 17 14 12 9 7 6 5 6 6 7 6 5 4 3 3 4 5 6 7 6 7 7 9 9 10 9 8 8 8 4 4 7 7 7 7 10 10 10 10
17 18 18 19 18 16 12 13 9 8 7 6 6 7 8 7 6 6 4 3 4 5 6 7 8 7 7 7 9 10 10 8 8 8 6 5 8 9 10 10 12 12 12
14 16 18 18 18 17 16 12 10 10 9 8 7 8 10 9 9 8 6 5 4 4 6 6 8 8 7 5 7 8 9 11 9 9 8 6 6 10 9 12 13 13 13
15 17 17 16 19 18 16 12 9 10 9 10 10 10 14 11 10 8 7 6 6 5 4 5 4 5 4 4 6 6 6 8 11 11 9 8 8 7 9 12 12 12 12
16 17 17 18 20 18 16 12 11 12 9 9 9 9 13 13 14 10 7 7 8 6 5 5 5 6 6 6 5 5 5 6 8 9 12 12 11 9 8 9 12 11 11
15 15 16 15 18 17 13 12 9 10 9 9 10 11 14 11 13 11 9 9 8 6 6 6 7 7 7 8 8 8 7 8 7 8 11 11 12 12 11 10 9 10 14
15 16 17 17 18 14 12 13 11 11 9 9 10 13 14 14 14 12 9 10 9 8 9 9 8 9 8 7 7 8 10 11 12 9 8 11 12 13 13 11 9 8 8
14 15 16 17 17 14 11 10 10 10 7 8 10 11 12 15 15 13 12 10 10 8 10 10 10 8 8 7 7 7 8 8 9 12 10 9 13 9 11 13 13 12 10
14 15 14 15 16 14 14 10 10 8 8 8 10 10 12 13 12 14 15 11 10 9 8 9 9 11 8 8 10 8 5 6 4 4 11 10 11 9 9 10 12 12 11
12 13 14 14 15 13 15 12 15 10 12 10 10 11 12 14 12 12 13 14 13 8 9 9 8 9 9 10 8 7 13 10 6 5 4 7 8 10 10 7 9 11 11
11 12 12 13 13 13 13 13 11 13 11 11 11 15 14 12 12 13 12 13 13 11 10 11 11 8 9 9 9 9 9 10 11 11 10 6 6 6 8 10 11 10 10
11 11 12 14 14 13 13 13 13 14 14 12 13 12 11 11 11 13 13 12 12 13 13 11 12 13 7 12 11 12 11 7 9 10 11 12 11 7 7 7 7 7 7
Wind_Direction
135 113 86 108 130 122 116 108 104 99 90 103 105 106 106 104 102 99 95 92 90 93 94 92 92 89 97 100 95 92 88 80 83 81 78 92 107 107 114 115 127 100 96
121 115 86 109 129 130 124 119 113 101 103 94 95 99 96 96 100 101 95 94 99 104 103 96 94 94 94 99 98 95 90 86 83 72 83 100 95 109 115 72 91 107 106
115 112 118 98 128 128 126 127 124 117 110 106 102 99 101 100 100 106 111 112 112 110 106 108 104 97 98 104 109 103 94 88 80 76 334 138 129 128 127 108 111 114 105
100 99 86 82 100 108 115 112 112 118 119 120 118 117 118 118 117 116 118 116 120 115 114 111 111 109 105 105 113 110 98 85 80 143 150 126 132 149 137 126 121 119 119
93 88 82 67 73 75 84 90 96 97 93 100 119 125 124 130 128 121 118 111 110 115 123 124 125 124 125 122 122 121 109 91 91 209 109 97 129 156 142 136 136 133 151
72 64 75 44 50 51 55 58 57 62 68 70 65 86 103 157 169 140 117 126 135 137 139 139 136 140 142 144 139 132 118 103 254 114 118 99 53 156 148 143 125 135 135
68 57 69 37 62 64 55 54 55 55 51 44 37 34 337 323 307 119 87 137 152 160 164 160 159 150 158 166 162 150 134 33 270 142 132 101 87 312 150 140 157 157 143
47 30 22 46 19 26 36 40 38 36 36 36 26 15 0 340 331 315 267 204 190 189 187 190 179 166 172 181 172 166 156 294 205 161 168 186 114 225 151 154 167 160 150
31 24 16 6 0 46 40 22 21 17 18 22 23 23 20 11 352 309 290 261 246 239 226 210 202 184 185 191 183 180 181 294 264 126 144 205 121 258 215 186 191 184 169
26 17 10 5 1 357 351 37 357 11 11 9 9 7 358 308 343 265 285 241 268 253 239 233 220 205 189 198 199 195 207 246 250 209 210 108 249 251 242 203 209 199 184
16 12 4 358 351 347 340 348 312 52 348 316 318 46 284 297 298 279 51 329 296 292 258 236 232 223 191 196 212 208 233 241 238 240 221 110 276 249 249 212 209 198 192
7 3 2 353 346 340 332 331 325 322 325 338 344 347 332 330 325 317 308 298 289 277 272 255 234 232 203 218 195 202 233 241 248 251 242 115 277 184 92 192 206 194 181
7 7 1 355 348 343 335 328 317 321 316 316 326 326 326 318 323 306 298 275 275 233 265 246 223 235 237 232 223 218 226 237 239 246 198 197 271 185 150 170 204 187 184
15 12 7 3 355 350 336 330 323 322 338 326 339 332 317 304 317 320 314 316 292 284 272 267 262 244 237 239 238 226 229 224 236 242 220 177 250 234 188 204 198 190 189
19 13 11 9 5 359 352 348 341 339 335 337 334 340 336 319 314 316 314 313 310 303 290 276 253 255 245 246 248 241 234 229 224 224 267 168 223 241 218 210 207 204 205
19 15 9 12 7 7 5 356 355 353 346 350 353 358 347 336 325 319 304 307 309 313 307 294 284 266 258 256 244 246 247 237 239 231 233 219 220 225 227 218 217 221 218
21 16 15 12 9 10 9 11 4 4 3 8 3 10 5 356 339 328 318 306 307 314 305 306 302 288 274 257 266 264 258 257 246 239 242 243 214 220 233 229 219 220 219
24 22 19 17 14 10 10 7 11 19 19 12 11 7 6 2 354 335 326 319 323 304 293 282 303 302 285 282 275 264 265 284 268 258 243 236 227 235 210 231 232 233 229
22 22 19 18 15 11 9 5 13 15 16 12 17 14 9 3 352 341 331 327 327 309 293 289 279 270 277 267 249 264 264 260 265 273 257 245 240 238 226 199 227 232 231
24 22 21 19 16 11 8 9 7 3 11 9 8 4 3 3 357 346 335 336 326 313 300 285 275 273 276 291 283 272 247 250 246 250 254 249 243 233 236 234 212 224 226
26 21 19 15 14 13 8 5 360 355 0 351 1 353 355 351 354 350 340 330 331 322 314 301 291 283 271 264 290 271 266 254 245 239 253 255 242 236 234 235 233 239 224
19 17 14 12 8 10 3 357 351 342 348 336 346 344 351 346 342 339 339 327 326 317 308 299 288 276 273 274 264 278 282 260 238 236 223 242 242 237 235 235 232 231 238
13 9 6 5 1 2 356 346 344 340 337 339 340 337 341 338 336 335 327 324 319 314 301 299 299 294 279 263 246 259 263 250 304 215 235 227 234 246 244 245 238 236 229
4 359 358 356 354 354 351 347 345 337 331 332 323 322 325 327 326 324 322 319 313 307 299 293 284 280 275 267 262 239 263 270 266 270 201 234 238 237 234 241 243 239 239
356 351 348 345 345 345 343 340 334 328 320 318 317 317 315 312 316 315 314 313 310 309 297 293 291 272 266 260 258 257 229 244 252 259 266 223 222 230 220 220 226 231 232
347 345 340 338 334 334 332 328 323 316 313 312 312 311 310 311 310 306 308 307 305 298 298 297 288 284 279 264 251 254 248 230 231 240 243 252 261 245 225 220 226 234 237